Погода в Борисовском

Россия / Омская область     54°37′25″N   72°35′11″E
темп.,
°C
ветер,
м/с
пор.,
м/с
влажн.,
%
обл.,
%
осадки,
мм/ч
давл.,
гПа
погр.,
м
15 апреля, чт
чт1500:00+2з37945 0.0 102993
03:00+1зюз359553 0.0 102865
06:00+3зюз379518 0.0 1028111
09:00+5зюз49930 0.0 1028200
12:00+9з58845 0.0 1027294
15:00+12з58775 0.0 1025404
18:00+12зюз49815 0.0 1024350
21:00+9зюз48875 0.0 1023116
16 апреля, пт
пт1600:00+7зюз48865 0.0 1022117
03:00+6зюз49845 0.0 1020132
06:00+5зюз4107815 0.0 1019140
09:00+8зюз5106936 0.0 1018256
12:00+13з575890 0.0 1018512
15:00+15сз576049 0.0 10181275
18:00+7ссв81181100 0.0 1021569
21:00+6св61076100 0.0 1022760
17 апреля, сб
сб1700:00+5св597391 0.0 1023743
03:00+2св598248 0.0 1023388
06:000всв37875 0.0 1023234
09:00+2в33745 0.0 1023393
12:00+5ссз23575 0.0 1022919
15:00+8сз464547 0.0 10211690
18:00+8сз574398 0.0 10201882
21:00+5зсз22575 0.0 102013
18 апреля, вс
вс1800:00+4зюз3363100 0.0 101933
03:00+3юз356990 0.0 101773
06:00+3ююз4972100 0.0 1015154
09:00+6юз51165100 0.0 1012528
12:00+9зюз8124796 0.0 10091924
15:00+9з91448100 0.3 10062228
18:00+6зсз91545100 0.4 10082016
21:00−2сз10146889 0.0 10111160
19 апреля, пн
пн1900:00−4ссз101368100 0.1 10141317
03:00−5ссз91366100 0.1 10171072
06:00−7ссз812575 0.1 1020948
09:00−7ссз9104654 0.0 10221202
12:00−4ссз91038100 0.0 10231777
15:00−2ссз81035100 0.0 10232163
18:00−2с81037100 0.0 10242375
21:00−3с61051100 0.1 10261490